Home > Weather > Stuhr > Past weeks

Flag for Germany Weather for the Past 2 Weeks in Stuhr, Lower Saxony, Germany

Now
37 °F

Passing clouds.


Feels Like: 29 °F
Forecast: 25 / 36 °F
Wind: 13 mph from East

Location: Bremen Airport

Current Time: Feb 14, 2016 at 1:10:03 AM

Latest Report: Feb 14, 2016 at 12:20 AM


Visibility: N/A

Pressure: 29.18 "Hg

Humidity: 81%

Dew point: 32 °F

Location of StuhrLocation

Historic Weather in Stuhr — Graph

°F

Stuhr Temperature Yesterday

Maximum temperature yesterday: 39 °F (at 2:20 PM)
Minimum temperature yesterday: 28 °F (at 8:20 AM)
Average temperature yesterday: 33 °F

High & Low Weather Summary for the Past Weeks

 TemperatureHumidityPressure
High54 °F (Feb 1, 8:20 PM)100% (Feb 1, 12:20 AM)30.24 "Hg (Feb 1, 12:20 AM)
Low28 °F (Feb 12, 6:20 AM)61% (Feb 3, 1:20 PM)28.74 "Hg (Feb 9, 8:20 PM)
Average42 °F84%29.62 "Hg
* Reported Jan 29 11:20 PM — Feb 13 11:20 PM, Stuhr, Weather by CustomWeather, © 2016

Note: Actual official high and low records may vary slightly from our data, if they occured in-between our weather recording intervals... More about our weather records

Advertising

Stuhr Weather History for the Previous 24 Hours

 ConditionsComfort  
Time TempWeatherWind HumidityBarometerVisibility
11:20 PM
Sat, Feb 13
36 °FPartly cloudy.13 mph87%29.18 "HgN/A
10:50 PM36 °FPassing clouds.15 mph87%29.21 "HgN/A
10:20 PM36 °FPassing clouds.13 mph87%29.21 "HgN/A
9:50 PM37 °FPassing clouds.13 mph81%29.21 "HgN/A
9:20 PM36 °FClear.13 mph87%29.21 "Hg10 mi
8:50 PM36 °FClear.13 mph87%29.21 "Hg10 mi
8:20 PM36 °FClear.13 mph93%29.24 "Hg10 mi
7:50 PM36 °FClear.13 mph93%29.24 "Hg6 mi
7:20 PM36 °FClear.12 mph93%29.24 "Hg5 mi
6:50 PM36 °FClear.14 mph93%29.24 "Hg5 mi
6:20 PM36 °FClear.15 mph93%29.27 "Hg10 mi
5:50 PM36 °FClear.17 mph93%29.27 "Hg10 mi
5:20 PM36 °FSunny.16 mph93%29.27 "Hg10 mi
4:50 PM37 °FSunny.14 mph87%29.27 "Hg10 mi
4:20 PM37 °FBroken clouds.14 mph87%29.27 "HgN/A
3:50 PM39 °FBroken clouds.13 mph81%29.27 "HgN/A
3:20 PM39 °FSunny.13 mph87%29.30 "Hg10 mi
2:50 PM39 °FScattered clouds.13 mph81%29.30 "HgN/A
2:20 PM39 °FSunny.12 mph81%29.30 "Hg10 mi
1:50 PM37 °FSunny.12 mph87%29.33 "Hg10 mi
1:20 PM37 °FSunny.10 mph87%29.33 "Hg10 mi
12:50 PM36 °FPassing clouds.12 mph93%29.36 "HgN/A
12:20 PM34 °FScattered clouds.10 mph100%29.36 "Hg5 mi
11:50 AM32 °FIce fog.9 mph100%29.39 "Hg3 mi
11:20 AM30 °FIce fog.12 mph100%29.39 "Hg2 mi
10:50 AM30 °FIce fog.9 mph100%29.42 "Hg2 mi
10:20 AM30 °FIce fog.8 mph100%29.42 "Hg1 mi
9:50 AM30 °FIce fog.7 mph100%29.42 "Hg1 mi
9:20 AM28 °FIce fog.8 mph100%29.42 "Hg1 mi
8:50 AM28 °FIce fog.9 mph100%29.45 "Hg1 mi
8:20 AM28 °FIce fog.7 mph100%29.45 "Hg1 mi
7:50 AM30 °FIce fog.7 mph93%29.45 "Hg1 mi
7:20 AM30 °FIce fog.6 mph93%29.45 "Hg1 mi
6:50 AM30 °FIce fog.7 mph93%29.45 "Hg1 mi
6:20 AM30 °FIce fog.5 mph100%29.45 "Hg1 mi
5:50 AM30 °FIce fog.7 mph93%29.45 "Hg1 mi
5:20 AM30 °FIce fog.6 mph100%29.47 "Hg0 mi
4:50 AM30 °FIce fog.6 mph100%29.47 "Hg0 mi
4:20 AM30 °FIce fog.7 mph100%29.47 "Hg0 mi
3:20 AM30 °FIce fog.7 mph93%29.47 "Hg0 mi
2:20 AM30 °FIce fog.6 mph100%29.47 "Hg0 mi
1:50 AM30 °FIce fog.8 mph100%29.50 "Hg0 mi
1:20 AM30 °FIce fog.7 mph100%29.50 "Hg1 mi
Weather by CustomWeather, © 2016

See weather overviewHow to use our weather pages